Flag for Poland Weather past 2 weeks in Kraków, Poland

41 °F


Feels Like: 36 °F
Forecast: 38 / 45 °F
Wind: 8 mph from Southwest

Location: Krakow Airport

Current Time: Nov 30, 2015 at 12:37:37 AM

Latest Report: Nov 30, 2015 at 12:00 AM

Visibility: N/A

Pressure: 29.83 "Hg

Humidity: 81%

Dew point: 36 °F

Location of KrakówLocation

Historic Weather in Kraków — Graph


Kraków temperature yesterday

Maximum temperature yesterday: 43 °F (at 12:00 PM)
Minimum temperature yesterday: 32 °F (at 12:00 AM)
Average temperature yesterday: 38 °F

Past Weeks' High & Low Weather Summary

High59 °F (Nov 18, 8:30 AM)100% (Nov 15, 8:30 AM)30.30 "Hg (Nov 15, 8:30 AM)
Low19 °F (Nov 25, 4:00 AM)56% (Nov 23, 3:00 PM)29.36 "Hg (Nov 21, 12:30 AM)
Average39 °F87%29.85 "Hg
* Reported Nov 14 11:00 PM — Nov 29 11:00 PM, Kraków, Weather by CustomWeather, © 2015

Note: Actual official high and low records may vary slightly from our data, if they occured in-between our weather recording intervals... More about our weather records


Kraków weather history for previous 24 hours

Time TempWeatherWind HumidityBarometerVisibility
11:00 PM
Sun, Nov 29
41 °FPassing clouds.12 mph81%29.86 "HgN/A
10:30 PM41 °FPassing clouds.9 mph81%29.89 "HgN/A
10:00 PM41 °FOvercast.13 mph81%29.89 "HgN/A
9:30 PM39 °FOvercast.13 mph87%29.89 "HgN/A
9:00 PM39 °FLight rain. Overcast.6 mph87%29.92 "HgN/A
8:30 PM37 °FLight rain. Overcast.5 mph87%29.92 "HgN/A
8:00 PM37 °FOvercast.5 mph87%29.92 "HgN/A
7:30 PM37 °FPassing clouds.6 mph87%29.92 "HgN/A
7:00 PM39 °FLight rain. Passing clouds.7 mph81%29.92 "HgN/A
6:30 PM39 °FPassing clouds.8 mph81%29.92 "HgN/A
6:00 PM39 °FPassing clouds.9 mph75%29.92 "HgN/A
5:30 PM39 °FPassing clouds.9 mph75%29.92 "HgN/A
5:00 PM39 °FPassing clouds.10 mph75%29.92 "HgN/A
4:30 PM39 °FOvercast.10 mph75%29.92 "HgN/A
4:00 PM39 °FPassing clouds.17 mph81%29.92 "HgN/A
3:30 PM41 °FPartly sunny.15 mph70%29.92 "HgN/A
3:00 PM41 °FPartly sunny.18 mph70%29.92 "HgN/A
2:30 PM41 °FPartly sunny.16 mph70%29.92 "HgN/A
2:00 PM41 °FPartly sunny.24 mph70%29.92 "HgN/A
1:30 PM43 °FPartly sunny.20 mph66%29.92 "HgN/A
1:00 PM43 °FPartly sunny.22 mph66%29.92 "HgN/A
12:30 PM43 °FScattered clouds.16 mph66%29.92 "HgN/A
12:00 PM43 °FPassing clouds.20 mph66%29.92 "HgN/A
11:30 AM41 °FSunny.21 mph66%29.92 "Hg10 mi
11:00 AM41 °FSunny.17 mph66%29.95 "Hg10 mi
10:30 AM39 °FSunny.15 mph70%29.95 "Hg10 mi
10:00 AM37 °FSunny.9 mph70%29.98 "Hg10 mi
9:30 AM36 °FSunny.7 mph81%29.98 "Hg10 mi
9:00 AM34 °FSunny.7 mph87%29.98 "Hg10 mi
7:30 AM34 °FPassing clouds.10 mph87%29.98 "HgN/A
7:00 AM34 °FPassing clouds.14 mph87%29.98 "HgN/A
6:00 AM34 °FPassing clouds.10 mph93%29.98 "HgN/A
5:30 AM34 °FPassing clouds.7 mph93%29.98 "HgN/A
5:00 AM34 °FPartly cloudy.7 mph93%29.98 "Hg5 mi
4:30 AM36 °FPassing clouds.9 mph87%29.98 "Hg5 mi
4:00 AM36 °FPassing clouds.10 mph93%29.98 "Hg4 mi
3:30 AM36 °FPassing clouds.14 mph93%29.98 "Hg4 mi
3:00 AM36 °FFog.14 mph93%29.98 "Hg3 mi
2:30 AM36 °FFog.12 mph93%29.98 "Hg3 mi
2:00 AM34 °FLight rain. Fog.13 mph93%29.98 "Hg3 mi
1:30 AM34 °FLight rain. Fog.13 mph93%29.95 "Hg3 mi
1:00 AM32 °FLight snow. Ice fog.13 mph100%29.95 "Hg1 mi
12:30 AM32 °FLight snow. Ice fog.14 mph100%29.95 "Hg1 mi
12:00 AM32 °FSnow. Ice fog.14 mph100%29.95 "Hg1 mi
Weather by CustomWeather, © 2015

See weather overviewHow to use our weather pages